Clyde, Nunavut

2:41 AM ADT on May 28, 2017 (GMT -0300)
Clyde

Weather History for CYCY - May, 2013

Change the Weather History Date:

Friday, May 24, 2013

  Actual Average Record
Temperature  
Mean Temperature 20 °F -  
Max Temperature 29 °F 35 °F 39 °F (2001)
Min Temperature 10 °F 24 °F 6 °F (1999)
Degree Days  
Heating Degree Days 46    
Moisture  
Dew Point 19 °F    
Average Humidity 86    
Maximum Humidity 93    
Minimum Humidity 75    
Precipitation  
Precipitation 0.00 in 0.02 in - ()
Sea Level Pressure  
Sea Level Pressure 30.15 in    
Wind  
Wind Speed 10 mph ()    
Max Wind Speed 21 mph    
Max Gust Speed 25 mph    
Visibility 9.1 miles    
Events Snow    
Averages and records for this station are not official NWS values.
T = Trace of Precipitation, MM = Missing Value Source: Averaged Metar Reports

Daily Weather History Graph

Daily Weather History Graph

Search for Another Location

Airport or City:

Trip Planner

Search our weather history database for the weather conditions in past years. The results will help you decide how hot, cold, wet, or windy it might be!

Date:

Astronomy

Dec. 31, 1969 Rise Set
Actual Time Sun does not set Sun does not set
Civil Twilight Sun does not set Sun does not set
Nautical Twilight Sun does not set Sun does not set
Astronomical Twilight Sun does not set Sun does not set
Moon No Moon Rise 2:21 AM ADT (5/24)
Length of Visible Light 24h 00m
Length of Day
24h 00m
Full, 100% of the Moon is Illuminated
May 24
Full
May 25
Full
May 31
Last Quarter
Jun 8
New
Jun 16
First Quarter

Hourly Weather History & Observations

Time (ADT) Temp. Windchill Dew Point Humidity Pressure Visibility Wind Dir Wind Speed Gust Speed Precip Events Conditions
12:00 AM 13 °F - 11 °F 88% 30.15 in 10 mi West 3.5 mph - -  
12:00 AM 14.0 °F 8.2 °F 10.4 °F 86% 30.15 in 9.0 mi West 3.5 mph - N/A   Partly Cloudy
1:00 AM 12.2 °F - 10.4 °F 92% 30.15 in 9.0 mi WSW 2.3 mph - N/A   Clear
2:00 AM 14.0 °F 8.2 °F 12.2 °F 93% 30.15 in 9.0 mi WSW 3.5 mph - N/A   Mostly Cloudy
3:00 AM 12 °F - 10 °F 90% 30.15 in 10 mi West 4.6 mph - -  
3:00 AM 12.2 °F 4.3 °F 10.4 °F 92% 30.15 in 9.0 mi West 4.6 mph - N/A   Clear
4:00 AM 14.0 °F 6.5 °F 12.2 °F 93% 30.15 in 9.0 mi West 4.6 mph - N/A   Clear
5:00 AM 14.0 °F 3.9 °F 10.4 °F 86% 30.16 in 9.0 mi West 6.9 mph - N/A   Overcast
5:02 AM 14.0 °F 6.5 °F 10.4 °F 86% 30.15 in 9.0 mi West 4.6 mph - N/A   Overcast
5:58 AM 21.2 °F 7.3 °F 17.6 °F 86% 30.15 in 9.0 mi WNW 16.1 mph - N/A   Overcast
6:00 AM 21 °F - 17 °F 80% 30.15 in 10 mi WNW 15.0 mph - -   Overcast
6:00 AM 21.2 °F 7.8 °F 17.6 °F 86% 30.15 in 9.0 mi WNW 15.0 mph - N/A   Overcast
7:00 AM 23.0 °F 10.1 °F 19.4 °F 86% 30.15 in 9.0 mi West 15.0 mph - N/A   Overcast
8:00 AM 23.0 °F 11.1 °F 19.4 °F 86% 30.15 in 9.0 mi WNW 12.7 mph - N/A   Overcast
9:00 AM 25 °F - 20 °F 76% 30.15 in 10 mi WNW 13.8 mph - -   Overcast
9:00 AM 24.8 °F 12.9 °F 21.2 °F 86% 30.15 in 9.0 mi WNW 13.8 mph - N/A   Overcast
9:39 AM 24.8 °F 12.4 °F 21.2 °F 86% 30.15 in 9.0 mi WNW 15.0 mph - N/A Snow Light Snow
10:00 AM 24.8 °F 12.9 °F 21.2 °F 86% 30.16 in 9.0 mi WNW 13.8 mph - N/A Snow Light Snow
10:01 AM 24.8 °F 12.9 °F 21.2 °F 86% 30.15 in 9.0 mi WNW 13.8 mph - N/A   Overcast
10:24 AM 24.8 °F 12.9 °F 21.2 °F 86% 30.15 in 4.0 mi WNW 13.8 mph - N/A   Haze
10:34 AM 26.6 °F 15.7 °F 21.2 °F 80% 30.15 in 9.0 mi WNW 12.7 mph - N/A   Overcast
11:00 AM 26.6 °F 15.2 °F 23.0 °F 86% 30.15 in 25.0 mi NW 13.8 mph - N/A   Overcast
12:00 PM 26.6 °F 12.7 °F 23.0 °F 86% 30.15 in 25.0 mi NW 20.7 mph - N/A   Overcast
1:00 PM 26.6 °F 13.1 °F 23.0 °F 86% 30.15 in 25.0 mi NW 19.6 mph - N/A   Overcast
2:00 PM 28.4 °F 15.1 °F 24.8 °F 86% 30.15 in 25.0 mi NW 20.7 mph - N/A   Overcast
3:00 PM 28 °F - 24 °F 79% 30.16 in 10 mi NNW 19.6 mph - -   Overcast
3:00 PM 28.4 °F 16.2 °F 24.8 °F 86% 30.15 in 25.0 mi NNW 17.3 mph 23.0 mph N/A   Overcast
4:00 PM 28.4 °F 15.1 °F 24.8 °F 86% 30.15 in 25.0 mi NW 20.7 mph - N/A   Overcast
5:00 PM 28.4 °F 15.4 °F 24.8 °F 86% 30.15 in 25.0 mi NW 19.6 mph - N/A   Mostly Cloudy
6:00 PM 29 °F - 24 °F 75% 30.16 in 10 mi NW 19.6 mph - -  
6:00 PM 28.4 °F 16.2 °F 24.8 °F 86% 30.16 in 25.0 mi NW 17.3 mph 25.3 mph N/A   Scattered Clouds
7:00 PM 28.4 °F 16.2 °F 23.0 °F 80% 30.16 in 25.0 mi NW 17.3 mph - N/A   Mostly Cloudy
8:00 PM 28.4 °F 15.4 °F 23.0 °F 80% 30.15 in 25.0 mi NNW 19.6 mph - N/A   Mostly Cloudy
9:00 PM 27 °F - 24 °F 83% 30.16 in 10 mi NNW 20.7 mph - -   Overcast
9:00 PM 26.6 °F 12.7 °F 24.8 °F 93% 30.16 in 9.0 mi NNW 20.7 mph - N/A   Overcast
10:00 PM 24.8 °F 11.1 °F 23.0 °F 93% 30.17 in 9.0 mi NW 18.4 mph - N/A   Overcast
11:00 PM 24.8 °F 10.7 °F 23.0 °F 93% 30.16 in 9.0 mi NW 19.6 mph - N/A   Overcast